This demonstration page uses our WeatherBlox Daily Observations layout. Learn more.

Left ArrowRight Arrow

Hourly Observations for July 23, 2018

Temp ( °F °C ) Dew Point ( °F °C ) Humidity (%) Winds ( mph kmh ) Pressure ( in mb ) Visibility ( mi km ) Precip ( " mm )
12:53 am 00:53 Clear 84 28.9 67 19.4 57 57 NNE 3 6 29.97 1015 10 16 0.00 0.00
1:53 am 01:53 Clear 84 28.9 64 17.8 51 51 VRB 3 6 29.97 1015 10 16 0.00 0.00
2:53 am 02:53 Clear 82 27.8 65 18.3 56 56 Calm 29.97 1015 10 16 0.00 0.00
3:53 am 03:53 Clear 79 26.1 65 18.3 62 62 Calm 29.96 1015 10 16 0.00 0.00
4:53 am 04:53 Clear 78 25.6 66 18.9 67 67 Calm 29.97 1015 10 16 0.00 0.00
5:53 am 05:53 Clear 77 25 66 18.9 69 69 N 3 6 29.98 1015 10 16 0.00 0.00
6:53 am 06:53 Sunny 77 25 66 18.9 69 69 Calm 29.98 1015 10 16 0.00 0.00
7:53 am 07:53 Sunny 84 28.9 62 16.7 48 48 Calm 29.98 1015 10 16 0.00 0.00
8:53 am 08:53 Sunny 86 30 60 15.6 42 42 VRB 3 6 29.99 1016 10 16 0.00 0.00
9:53 am 09:53 Sunny 89 31.7 61 16.1 39 39 SSE 3 6 29.99 1016 10 16 0.00 0.00
10:53 am 10:53 Sunny 92 33.3 62 16.7 37 37 Calm 29.98 1015 10 16 0.00 0.00
11:53 am 11:53 Sunny 96 35.6 61 16.1 31 31 VRB 5 7 29.96 1014 10 16 0.00 0.00
12:53 pm 12:53 Sunny 99 37.2 59 15 27 27 VRB 3 6 29.94 1014 10 16 0.00 0.00
1:53 pm 13:53 Sunny 101 38.3 60 15.6 26 26 S 8 13 29.92 1013 10 16 0.00 0.00
2:53 pm 14:53 Sunny 104 40 59 15 23 23 S 8 13 29.89 1012 10 16 0.00 0.00
3:53 pm 15:53 Sunny 105 40.6 59 15 22 22 SSE 8 13 29.87 1011 10 16 0.00 0.00
4:53 pm 16:53 Sunny 105 40.6 58 14.4 21 21 S 7 11 29.85 1011 10 16 0.00 0.00
5:53 pm 17:53 Sunny 105 40.6 56 13.3 20 20 SSE 9 15 29.84 1010 10 16 0.00 0.00
6:53 pm 18:53 Sunny 103 39.4 58 14.4 23 23 SSE 14 22 29.84 1010 10 16 0.00 0.00
7:53 pm 19:53 Sunny 98 36.7 62 16.7 31 31 SSE 13 20 29.86 1011 10 16 0.00 0.00
8:53 pm 20:53 Clear 94 34.4 62 16.7 35 35 SSE 9 15 29.87 1011 10 16 0.00 0.00
9:53 pm 21:53 Clear 91 32.8 65 18.3 42 42 S 6 9 29.89 1012 10 16 0.00 0.00
10:53 pm 22:53 Clear 89 31.7 65 18.3 45 45 NE 3 6 29.91 1013 10 16 0.00 0.00
11:53 pm 23:53 Clear 87 30.6 66 18.9 50 50 N 3 6 29.91 1013 10 16 0.00 0.00

Powered by AerisWeather